SHT4B EGLL-EGAC

Flight info

Callsign SHT4B
Flight time 0h 52m
Altitude 38000
Route UMLAT T418 WELIN T420 TNT UL28 RODOL UM65 TENSO L603 BELOX DCT REMSI DCT NINEB M148 MAGEE
Aircraft A319/M-SDE3FGIJ1KRWXY/LB1

Departure

Time 2026-04-18 10:11
Airport London Heathrow Airport (EGLL)

Arrival

Time 2026-04-18 11:03
Airport George Best Belfast City Airport (EGAC)
Time Latitude Longitude Altitude Speed Heading
2026-04-18 09:41 51.47208 -0.47182 90 ft 0 kts 90°
2026-04-18 10:00 51.47208 -0.47248 91 ft 4 kts 90°
2026-04-18 10:00 51.47208 -0.47292 90 ft 4 kts 89°
2026-04-18 10:00 51.47205 -0.47331 88 ft 4 kts 55°
2026-04-18 10:00 51.47186 -0.47352 89 ft 4 kts
2026-04-18 10:01 51.47167 -0.47352 88 ft 2 kts 359°
2026-04-18 10:01 51.47165 -0.47352 88 ft 0 kts 359°
2026-04-18 10:04 51.47174 -0.47352 89 ft 5 kts
2026-04-18 10:04 51.47237 -0.47355 86 ft 12 kts 358°
2026-04-18 10:05 51.47324 -0.47356 86 ft 13 kts
2026-04-18 10:05 51.47418 -0.47359 86 ft 16 kts
2026-04-18 10:05 51.47491 -0.47238 86 ft 20 kts 86°
2026-04-18 10:05 51.47493 -0.46990 86 ft 24 kts 87°
2026-04-18 10:06 51.47510 -0.46728 89 ft 22 kts 77°
2026-04-18 10:06 51.47516 -0.46470 86 ft 25 kts 90°
2026-04-18 10:06 51.47517 -0.46181 86 ft 27 kts 89°
2026-04-18 10:06 51.47517 -0.45863 86 ft 29 kts 92°
2026-04-18 10:07 51.47513 -0.45589 86 ft 25 kts 86°
2026-04-18 10:07 51.47510 -0.45301 86 ft 26 kts 89°
2026-04-18 10:07 51.47511 -0.45071 86 ft 19 kts 90°
2026-04-18 10:07 51.47510 -0.44844 86 ft 22 kts 90°
2026-04-18 10:08 51.47508 -0.44587 90 ft 24 kts 92°
2026-04-18 10:08 51.47507 -0.44302 88 ft 26 kts 89°
2026-04-18 10:08 51.47507 -0.44013 87 ft 27 kts 90°
2026-04-18 10:08 51.47483 -0.43766 88 ft 15 kts 133°
2026-04-18 10:09 51.47456 -0.43595 86 ft 18 kts 90°
2026-04-18 10:09 51.47491 -0.43431 87 ft 17 kts 20°
2026-04-18 10:09 51.47613 -0.43425 87 ft 19 kts 359°
2026-04-18 10:09 51.47739 -0.43427 90 ft 11 kts 359°
2026-04-18 10:10 51.47765 -0.43451 90 ft 5 kts 290°
2026-04-18 10:10 51.47765 -0.43481 87 ft 1 kts 268°
2026-04-18 10:10 51.47762 -0.43851 84 ft 66 kts 269°
2026-04-18 10:10 51.47763 -0.44917 89 ft 124 kts 270°
2026-04-18 10:11 51.47762 -0.46527 356 ft 150 kts 270°
2026-04-18 10:11 51.47751 -0.48169 1114 ft 146 kts 270°
2026-04-18 10:11 51.47729 -0.49858 1706 ft 161 kts 270°
2026-04-18 10:11 51.47706 -0.51780 2120 ft 185 kts 270°
2026-04-18 10:12 51.47718 -0.53981 2653 ft 210 kts 278°
2026-04-18 10:12 51.48242 -0.56305 3291 ft 234 kts 297°
2026-04-18 10:12 51.48991 -0.58651 4259 ft 243 kts 297°
2026-04-18 10:12 51.49777 -0.61093 5357 ft 249 kts 296°
2026-04-18 10:13 51.50580 -0.63587 6447 ft 253 kts 296°
2026-04-18 10:13 51.51415 -0.66096 7478 ft 258 kts 300°
2026-04-18 10:13 51.52797 -0.68000 8421 ft 274 kts 333°
2026-04-18 10:13 51.54710 -0.68565 9412 ft 286 kts 352°
2026-04-18 10:14 51.56720 -0.68707 10367 ft 293 kts 353°
2026-04-18 10:14 51.58843 -0.68801 10806 ft 317 kts 353°
2026-04-18 10:14 51.61125 -0.68922 11208 ft 337 kts 353°
2026-04-18 10:14 51.63496 -0.69085 11949 ft 344 kts 352°
2026-04-18 10:15 51.65899 -0.69292 12753 ft 349 kts 351°
2026-04-18 10:15 51.68346 -0.69535 13556 ft 354 kts 350°
2026-04-18 10:15 51.70826 -0.69804 14124 ft 361 kts 350°
2026-04-18 10:15 51.73336 -0.70092 14843 ft 363 kts 349°
2026-04-18 10:16 51.75873 -0.70385 15577 ft 367 kts 349°
2026-04-18 10:16 51.78431 -0.70677 16309 ft 371 kts 349°
2026-04-18 10:16 51.81016 -0.70976 17054 ft 375 kts 349°
2026-04-18 10:16 51.83634 -0.71276 17766 ft 379 kts 348°
2026-04-18 10:17 51.86282 -0.71577 18473 ft 384 kts 348°
2026-04-18 10:17 51.88958 -0.71881 19103 ft 388 kts 348°
2026-04-18 10:17 51.91661 -0.72192 19751 ft 391 kts 348°
2026-04-18 10:17 51.94385 -0.72507 20402 ft 394 kts 348°
2026-04-18 10:18 51.97136 -0.72818 21045 ft 398 kts 348°
2026-04-18 10:18 51.99912 -0.73129 21672 ft 401 kts 348°
2026-04-18 10:18 52.02660 -0.73781 22293 ft 397 kts 339°
2026-04-18 10:18 52.05255 -0.75031 22938 ft 395 kts 334°
2026-04-18 10:19 52.07885 -0.76407 23543 ft 398 kts 333°
2026-04-18 10:19 52.10531 -0.77796 24080 ft 402 kts 333°
2026-04-18 10:19 52.13204 -0.79198 24574 ft 405 kts 334°
2026-04-18 10:19 52.15896 -0.80609 25065 ft 407 kts 334°
2026-04-18 10:20 52.18603 -0.82030 25553 ft 410 kts 334°
2026-04-18 10:20 52.21326 -0.83461 26039 ft 413 kts 334°
2026-04-18 10:20 52.24047 -0.84986 26527 ft 411 kts 329°
2026-04-18 10:20 52.26580 -0.87064 26987 ft 405 kts 320°
2026-04-18 10:21 52.28993 -0.89472 27510 ft 407 kts 320°
2026-04-18 10:21 52.31424 -0.91897 27940 ft 412 kts 320°
2026-04-18 10:21 52.33880 -0.94341 28385 ft 415 kts 320°
2026-04-18 10:21 52.36355 -0.96810 28836 ft 418 kts 320°
2026-04-18 10:22 52.38844 -0.99297 29301 ft 421 kts 320°
2026-04-18 10:22 52.41351 -1.01805 29771 ft 423 kts 321°
2026-04-18 10:22 52.43869 -1.04326 30238 ft 426 kts 321°
2026-04-18 10:22 52.46408 -1.06868 30586 ft 428 kts 321°
2026-04-18 10:23 52.48959 -1.09424 30921 ft 432 kts 321°
2026-04-18 10:23 52.51527 -1.12008 31238 ft 435 kts 321°
2026-04-18 10:23 52.54114 -1.14620 31562 ft 438 kts 321°
2026-04-18 10:23 52.56689 -1.17217 31845 ft 442 kts 321°
2026-04-18 10:24 52.59311 -1.19862 32230 ft 442 kts 321°
2026-04-18 10:24 52.61934 -1.22508 32661 ft 442 kts 321°
2026-04-18 10:24 52.64559 -1.25157 33074 ft 443 kts 321°
2026-04-18 10:24 52.67186 -1.27811 33491 ft 443 kts 321°
2026-04-18 10:25 52.69813 -1.30469 33899 ft 443 kts 321°
2026-04-18 10:25 52.72437 -1.33133 34310 ft 444 kts 321°
2026-04-18 10:25 52.75067 -1.35814 34621 ft 444 kts 321°
2026-04-18 10:25 52.77694 -1.38496 34995 ft 444 kts 321°
2026-04-18 10:26 52.80324 -1.41185 35316 ft 445 kts 321°
2026-04-18 10:26 52.82960 -1.43880 35647 ft 446 kts 321°
2026-04-18 10:26 52.85599 -1.46579 35968 ft 446 kts 322°
2026-04-18 10:26 52.88244 -1.49285 36275 ft 447 kts 322°
2026-04-18 10:27 52.90887 -1.52001 36615 ft 447 kts 322°
2026-04-18 10:27 52.93525 -1.54718 36940 ft 447 kts 322°
2026-04-18 10:27 52.96166 -1.57442 37248 ft 447 kts 322°
2026-04-18 10:27 52.98808 -1.60169 37552 ft 447 kts 322°
2026-04-18 10:28 53.01450 -1.62904 37859 ft 448 kts 323°
2026-04-18 10:28 53.04094 -1.65645 38127 ft 448 kts 323°
2026-04-18 10:28 53.06740 -1.68388 38186 ft 448 kts 323°
2026-04-18 10:29 53.12026 -1.73879 38184 ft 447 kts 323°
2026-04-18 10:29 53.17301 -1.79381 38189 ft 447 kts 323°
2026-04-18 10:30 53.22579 -1.84907 38180 ft 447 kts 323°
2026-04-18 10:30 53.27917 -1.90290 38199 ft 449 kts 325°
2026-04-18 10:31 53.33357 -1.95357 38214 ft 450 kts 326°
2026-04-18 10:31 53.38848 -2.00428 38215 ft 450 kts 326°
2026-04-18 10:32 53.44300 -2.05594 38187 ft 450 kts 325°
2026-04-18 10:32 53.49728 -2.10824 38216 ft 449 kts 325°
2026-04-18 10:33 53.55144 -2.16059 38215 ft 447 kts 323°
2026-04-18 10:33 53.59708 -2.22869 38211 ft 434 kts 303°
2026-04-18 10:34 53.62565 -2.31644 38213 ft 425 kts 288°
2026-04-18 10:34 53.64699 -2.40951 38206 ft 426 kts 288°
2026-04-18 10:35 53.66834 -2.50266 38203 ft 426 kts 288°
2026-04-18 10:35 53.68952 -2.59594 38211 ft 426 kts 288°
2026-04-18 10:36 53.71066 -2.68936 38227 ft 426 kts 288°
2026-04-18 10:36 53.73160 -2.78236 38233 ft 426 kts 288°
2026-04-18 10:37 53.75259 -2.87606 38219 ft 426 kts 288°
2026-04-18 10:37 53.77355 -2.96984 38214 ft 426 kts 288°
2026-04-18 10:38 53.79442 -3.06374 38210 ft 426 kts 288°
2026-04-18 10:38 53.81170 -3.14178 38227 ft 426 kts 288°
2026-04-18 10:39 53.83232 -3.23550 37856 ft 424 kts 288°
2026-04-18 10:39 53.84263 -3.28237 37598 ft 423 kts 288°
2026-04-18 10:39 53.85288 -3.32897 37341 ft 422 kts 288°
2026-04-18 10:39 53.86308 -3.37553 37086 ft 421 kts 287°
2026-04-18 10:40 53.87324 -3.42214 36842 ft 421 kts 287°
2026-04-18 10:40 53.88336 -3.46864 36601 ft 420 kts 287°
2026-04-18 10:40 53.89349 -3.51512 36011 ft 422 kts 287°
2026-04-18 10:40 53.90363 -3.56195 35213 ft 426 kts 287°
2026-04-18 10:41 53.91386 -3.60942 34369 ft 430 kts 287°
2026-04-18 10:41 53.92415 -3.65723 33502 ft 432 kts 287°
2026-04-18 10:41 53.93440 -3.70493 32809 ft 428 kts 287°
2026-04-18 10:41 53.94453 -3.75215 32069 ft 425 kts 287°
2026-04-18 10:42 53.95464 -3.79930 31380 ft 423 kts 287°
2026-04-18 10:42 53.96666 -3.84456 30819 ft 420 kts 295°
2026-04-18 10:42 53.98121 -3.88734 30237 ft 415 kts 296°
2026-04-18 10:42 53.99559 -3.92954 29602 ft 409 kts 296°
2026-04-18 10:43 54.00968 -3.97103 29042 ft 401 kts 296°
2026-04-18 10:43 54.02346 -4.01182 28491 ft 394 kts 296°
2026-04-18 10:43 54.03693 -4.05198 27951 ft 388 kts 296°
2026-04-18 10:43 54.04999 -4.09108 27428 ft 382 kts 296°
2026-04-18 10:44 54.06325 -4.12998 26908 ft 378 kts 300°
2026-04-18 10:44 54.07821 -4.16643 26398 ft 373 kts 302°
2026-04-18 10:44 54.09311 -4.20222 25914 ft 368 kts 302°
2026-04-18 10:44 54.10781 -4.23759 25436 ft 364 kts 302°
2026-04-18 10:45 54.12231 -4.27263 24978 ft 360 kts 302°
2026-04-18 10:45 54.13665 -4.30741 24521 ft 357 kts 302°
2026-04-18 10:45 54.15085 -4.34196 24092 ft 354 kts 302°
2026-04-18 10:45 54.16492 -4.37622 23636 ft 351 kts 302°
2026-04-18 10:46 54.17890 -4.41017 23163 ft 347 kts 303°
2026-04-18 10:46 54.19269 -4.44363 22742 ft 342 kts 303°
2026-04-18 10:46 54.20625 -4.47659 22310 ft 337 kts 303°
2026-04-18 10:46 54.21960 -4.50906 21891 ft 332 kts 303°
2026-04-18 10:47 54.23279 -4.54114 21464 ft 327 kts 303°
2026-04-18 10:47 54.24580 -4.57284 21029 ft 324 kts 303°
2026-04-18 10:47 54.25866 -4.60429 20599 ft 322 kts 303°
2026-04-18 10:47 54.27145 -4.63566 20138 ft 320 kts 303°
2026-04-18 10:48 54.28414 -4.66690 19695 ft 319 kts 303°
2026-04-18 10:48 54.29676 -4.69804 19253 ft 318 kts 303°
2026-04-18 10:48 54.30933 -4.72908 18783 ft 317 kts 303°
2026-04-18 10:48 54.32188 -4.76004 18319 ft 316 kts 303°
2026-04-18 10:49 54.33439 -4.79087 17832 ft 314 kts 303°
2026-04-18 10:49 54.34678 -4.82148 17379 ft 311 kts 302°
2026-04-18 10:49 54.35908 -4.85188 16921 ft 309 kts 302°
2026-04-18 10:49 54.37112 -4.88172 16475 ft 307 kts 302°
2026-04-18 10:50 54.38321 -4.91179 16041 ft 305 kts 302°
2026-04-18 10:50 54.39521 -4.94169 15593 ft 303 kts 302°
2026-04-18 10:50 54.40714 -4.97143 15154 ft 302 kts 302°
2026-04-18 10:50 54.41904 -5.00107 14701 ft 301 kts 302°
2026-04-18 10:51 54.43089 -5.03060 14259 ft 300 kts 302°
2026-04-18 10:51 54.44268 -5.06002 13791 ft 298 kts 302°
2026-04-18 10:51 54.45447 -5.08920 13318 ft 296 kts 302°
2026-04-18 10:51 54.46619 -5.11806 12878 ft 293 kts 303°
2026-04-18 10:52 54.47782 -5.14667 12447 ft 291 kts 303°
2026-04-18 10:52 54.48935 -5.17509 12022 ft 288 kts 303°
2026-04-18 10:52 54.50080 -5.20329 11591 ft 287 kts 304°
2026-04-18 10:52 54.51421 -5.22868 11166 ft 287 kts 316°
2026-04-18 10:53 54.52980 -5.25006 10746 ft 286 kts 319°
2026-04-18 10:53 54.54533 -5.27102 10490 ft 278 kts 319°
2026-04-18 10:53 54.56032 -5.29138 10229 ft 272 kts 319°
2026-04-18 10:53 54.57505 -5.31145 10060 ft 268 kts 319°
2026-04-18 10:54 54.58966 -5.33138 9919 ft 267 kts 319°
2026-04-18 10:54 54.60424 -5.35127 9672 ft 269 kts 319°
2026-04-18 10:54 54.61879 -5.37112 9206 ft 269 kts 319°
2026-04-18 10:54 54.63342 -5.39113 8734 ft 270 kts 319°
2026-04-18 10:55 54.64804 -5.41114 8436 ft 265 kts 319°
2026-04-18 10:55 54.66241 -5.43083 8084 ft 262 kts 319°
2026-04-18 10:55 54.67660 -5.45025 7717 ft 258 kts 319°
2026-04-18 10:55 54.69061 -5.46940 7130 ft 256 kts 319°
2026-04-18 10:56 54.70451 -5.48844 6543 ft 254 kts 319°
2026-04-18 10:56 54.71824 -5.50729 5945 ft 251 kts 320°
2026-04-18 10:56 54.73186 -5.52595 5321 ft 249 kts 320°
2026-04-18 10:56 54.74532 -5.54447 4713 ft 246 kts 320°
2026-04-18 10:57 54.75858 -5.56275 4170 ft 241 kts 320°
2026-04-18 10:57 54.77125 -5.58024 3959 ft 224 kts 319°
2026-04-18 10:57 54.78300 -5.59643 3840 ft 206 kts 319°
2026-04-18 10:57 54.79178 -5.61415 3731 ft 186 kts 295°
2026-04-18 10:58 54.79455 -5.63551 3635 ft 183 kts 272°
2026-04-18 10:58 54.79154 -5.65702 3539 ft 189 kts 248°
2026-04-18 10:58 54.78282 -5.67450 3434 ft 199 kts 222°
2026-04-18 10:58 54.77142 -5.68824 3335 ft 200 kts 220°
2026-04-18 10:59 54.76005 -5.70187 3251 ft 198 kts 221°
2026-04-18 10:59 54.74882 -5.71540 3040 ft 194 kts 221°
2026-04-18 10:59 54.73797 -5.72847 2798 ft 191 kts 221°
2026-04-18 10:59 54.72719 -5.74147 2584 ft 185 kts 221°
2026-04-18 11:00 54.71671 -5.75409 2290 ft 181 kts 221°
2026-04-18 11:00 54.70667 -5.76615 2044 ft 170 kts 221°
2026-04-18 11:00 54.69731 -5.77739 1816 ft 157 kts 222°
2026-04-18 11:00 54.68896 -5.78737 1615 ft 135 kts 224°
2026-04-18 11:01 54.68162 -5.79620 1430 ft 124 kts 225°
2026-04-18 11:01 54.67461 -5.80465 1257 ft 122 kts 224°
2026-04-18 11:01 54.66770 -5.81299 1096 ft 120 kts 223°
2026-04-18 11:02 54.65393 -5.82955 774 ft 121 kts 220°
2026-04-18 11:02 54.64696 -5.83784 631 ft 122 kts 219°
2026-04-18 11:02 54.64010 -5.84611 409 ft 120 kts 217°
2026-04-18 11:02 54.63323 -5.85404 271 ft 118 kts 219°
2026-04-18 11:03 54.62649 -5.86230 108 ft 119 kts 218°
2026-04-18 11:03 54.61991 -5.87030 17 ft 107 kts 216°
2026-04-18 11:03 54.61504 -5.87615 15 ft 60 kts 214°
2026-04-18 11:03 54.61325 -5.87793 15 ft 11 kts 168°
2026-04-18 11:04 54.61273 -5.87694 16 ft 6 kts 122°
2026-04-18 11:04 54.61258 -5.87625 18 ft 6 kts 81°
2026-04-18 11:04 54.61290 -5.87563 18 ft 8 kts 42°
2026-04-18 11:04 54.61335 -5.87504 21 ft 9 kts 33°
2026-04-18 11:05 54.61386 -5.87433 21 ft 11 kts 46°
2026-04-18 11:05 54.61445 -5.87327 21 ft 14 kts 35°
2026-04-18 11:05 54.61506 -5.87253 21 ft 8 kts 42°
2026-04-18 11:05 54.61483 -5.87204 21 ft 6 kts 158°
2026-04-18 11:06 54.61470 -5.87194 23 ft 1 kts 156°
2026-04-18 11:06 54.61463 -5.87189 22 ft 1 kts 156°
2026-04-18 11:06 54.61461 -5.87187 22 ft 0 kts 156°